CZ-3C DEB, 44527

Orbit data source: Space-Track

CZ-3C DEB, 44527 is space debris in HEO originally from a launch on Sun, 31 Oct 2010 UTC launched from the Xichang Space Center, China (XSC). Debris objects in space refer to the collection of defunct objects orbiting the Earth. Examples of debris include non-operational satellites, rocket bodies, and fragments generated from explosions, collisions, or faulty payload assembly.

Loading next visibility...
Identifier
44527, 2010-057BM
Orbit
HEO
Country
Flag of CNCN / PRC
Related business
Manufacturer
CALT
Mission
Spacecraft
Bus & Motor
Unknown
Mass
Unknown
Launch date (UTC)
2010-10-31 (15 years ago)
Launch vehicle
Unknown
Launch site
Xichang Space Center, China (XSC)
Object type
Payload
Rocket body
Debris
Shape & HBR
Unknown shape, 0.3 m
Radar Cross Section
Medium (>0.1 m² and <1 m²)

Expand to show TLE details & history
Last TLE update: 2 days ago

TLE from 2 days ago
0 CZ-3C DEB
1 44527U 10057BM  26071.46666354  .00000004  00000-0 -57428-3 0  9995
2 44527  20.0983  97.3817 7185422 163.6992 244.9260  2.23732069 76246
Epoch: 2026-03-12T11:11Z
TLE epoch observation values (Epoch: 2026-03-12T11:11:59.729Z)
Latitude
-0.00003°
Longitude
119.3008°
Altitude
32,081.389 km
Speed
2.142 km/s
True Right ascension
06h 29m 39s
True Declination
0° 00' 00"
Sunlit
Object was in daylight at epoch
Visualization orbit readout
Latitude
Unknown
Longitude
Unknown
Altitude
Unknown
Speed
Unknown
Apparent Right ascension
Unknown
Apparent Declination
Unknown
Sunlit
N/A
Visualization observer readout
Local Sidereal Time
10:26:25
Azimuth
Unknown
Elevation
Unknown
Doppler factor
Unknown
Orbital elements
Apogee altitude
36,066.245 km
Perigee altitude
573.279 km
Semi-major axis
24,697.899 km
Eccentricity
0.71854
Inclination
20.0983°
RAAN
97.3817°
Arg. of periapsis
163.6992°
True anomaly
196.31595°
Mean anomaly
244.926°
Eccentric anomaly
219.01106°
Mean motion
0.55918 °/min
Orbital period
643.8 mins
BSTAR
-0.00057428
Loading maneuver chart data...
Computing Atmospheric mass density...
Loading historical data...
Loading historical data...
Loading historical data...
Loading historical data...
Loading historical data...
Loading historical data...
Loading historical data...

Documentation

Showing up to 5 results
|